SP5QWJ Weather Reports


time (UTC)temp
C
wind
direction
speed
KPH
gust
KPH
rain 1hr
cm
rain 24hr
cm
rain mn
cm
humidity
%
barometer
mb
20260902172040 18 0.0 0.0 0.00 0.00 0.00 100 1017.9
20260902170533 18 0.0 0.0 0.00 0.00 0.00 100 1017.8
20260902165030 18 0.0 0.0 0.00 0.00 0.00 100 1017.7
20260902163519 19 0.0 0.0 0.00 0.00 0.00 100 1017.7
20260902162014 20 0.0 0.0 0.00 0.00 0.00 100 1017.7
20260902160502 20 0.0 0.0 0.00 0.00 0.00 98 1017.6
20260902154956 20 0.0 0.0 0.00 0.00 0.00 96 1017.7
20260902153448 21 0.0 0.0 0.00 0.00 0.00 96 1017.7
20260902151936 21 0.0 0.0 0.00 0.00 0.00 94 1017.7
20260902150428 21 0.0 0.0 0.00 0.00 0.00 93 1017.9
20260902144916 21 0.0 0.0 0.00 0.00 0.00 94 1018.0
20260902143409 21 0.0 0.0 0.00 0.00 0.00 93 1018.1
20260902141901 21 0.0 0.0 0.00 0.00 0.00 94 1018.2
20260902140359 21 0.0 0.0 0.00 0.00 0.00 94 1018.2
20260902134848 21 0.0 0.0 0.00 0.00 0.00 94 1018.2
20260902133341 22 0.0 0.0 0.00 0.00 0.00 93 1018.1
20260902131842 22 0.0 0.0 0.00 0.00 0.00 94 1018.2
20260902130335 22 0.0 0.0 0.00 0.00 0.00 94 1018.3
20260902124826 23 0.0 0.0 0.00 0.00 0.00 93 1018.2
20260902123320 22 0.0 0.0 0.00 0.00 0.00 96 1018.3
20260902121815 21 0.0 0.0 0.00 0.00 0.00 96 1018.4
20260902120308 22 0.0 0.0 0.00 0.00 0.00 95 1018.4
20260902114756 22 0.0 0.0 0.00 0.00 0.00 93 1018.5
20260902113250 22 0.0 0.0 0.00 0.00 0.00 95 1018.6
20260902111742 23 0.0 0.0 0.00 0.00 0.00 96 1018.8
20260902110234 22 0.0 0.0 0.00 0.00 0.00 99 1018.9
20260902104728 22 0.0 0.0 0.00 0.00 0.00 99 1019.0
20260902103220 22 0.0 0.0 0.00 0.00 0.00 100 1018.9
20260902101704 21 0.0 0.0 0.00 0.00 0.00 100 1019.0
20260902100200 22 0.0 0.0 0.00 0.00 0.00 100 1018.9
20260902094648 22 0.0 0.0 0.00 0.00 0.00 100 1019.0
20260902093138 23 0.0 0.0 0.00 0.00 0.00 100 1019.1
20260902091631 23 0.0 0.0 0.00 0.00 0.00 100 1018.9
20260902090128 22 0.0 0.0 0.00 0.00 0.00 100 1018.9
20260902084621 21 0.0 0.0 0.00 0.00 0.00 100 1019.0
20260902083114 23 0.0 0.0 0.00 0.00 0.00 100 1019.0
20260902081609 20 0.0 0.0 0.00 0.00 0.00 100 1018.9
20260902080103 20 0.0 0.0 0.00 0.00 0.00 100 1018.8
20260902074557 19 0.0 0.0 0.00 0.00 0.00 100 1018.8
20260902073048 19 0.0 0.0 0.00 0.00 0.00 100 1018.8
20260902071540 18 0.0 0.0 0.00 0.00 0.00 100 1018.7
20260902070034 17 0.0 0.0 0.00 0.00 0.00 100 1018.5
20260902064521 17 0.0 0.0 0.00 0.00 0.00 100 1018.4
20260902063013 17 0.0 0.0 0.00 0.00 0.00 100 1018.4
20260902061459 17 0.0 0.0 0.00 0.00 0.00 100 1018.3
20260902055950 16 0.0 0.0 0.00 0.00 0.00 100 1018.3
20260902054448 16 0.0 0.0 0.00 0.00 0.00 100 1018.2
20260902052937 15 0.0 0.0 0.00 0.00 0.00 100 1018.1
20260902051430 15 0.0 0.0 0.00 0.00 0.00 100 1018.1
20260902045918 15 0.0 0.0 0.00 0.00 0.00 100 1017.8
20260902044418 15 0.0 0.0 0.00 0.00 0.00 100 1017.7
20260902042904 14 0.0 0.0 0.00 0.00 0.00 100 1017.6
20260902041352 14 0.0 0.0 0.00 0.00 0.00 100 1017.6
20260902035845 14 0.0 0.0 0.00 0.00 0.00 100 1017.6
20260902034338 15 0.0 0.0 0.00 0.00 0.00 100 1017.4
20260902032829 15 0.0 0.0 0.00 0.00 0.00 100 1017.5
20260902031321 15 0.0 0.0 0.00 0.00 0.00 100 1017.5
20260902025813 15 0.0 0.0 0.00 0.00 0.00 100 1017.5
20260902024305 15 0.0 0.0 0.00 0.00 0.00 100 1017.5
20260902022802 15 0.0 0.0 0.00 0.00 0.00 100 1017.5
20260902021250 15 0.0 0.0 0.00 0.00 0.00 100 1017.5
20260902015747 15 0.0 0.0 0.00 0.00 0.00 100 1017.5
20260902014241 15 0.0 0.0 0.00 0.00 0.00 100 1017.6
20260902012736 15 0.0 0.0 0.00 0.00 0.00 100 1017.6
20260902011229 15 0.0 0.0 0.00 0.00 0.00 100 1017.6
20260902005722 15 0.0 0.0 0.00 0.00 0.00 100 1017.6
20260902004214 16 0.0 0.0 0.00 0.00 0.00 100 1017.5
20260902002708 16 0.0 0.0 0.00 0.00 0.00 100 1017.4
20260902001201 16 0.0 0.0 0.00 0.00 0.00 100 1017.4
20260901235659 16 0.0 0.0 0.00 0.00 0.00 100 1017.4
20260901234149 16 0.0 0.0 0.00 0.00 0.00 100 1017.3
20260901232643 16 0.0 0.0 0.00 0.00 0.00 100 1017.2
20260901231130 16 0.0 0.0 0.00 0.00 0.00 100 1017.2
20260901225625 16 0.0 0.0 0.00 0.00 0.00 100 1017.3
20260901224114 17 0.0 0.0 0.00 0.00 0.00 100 1017.3
20260901222611 16 0.0 0.0 0.00 0.00 0.00 100 1017.2
20260901221103 16 0.0 0.0 0.00 0.00 0.00 100 1017.4
20260901215555 16 0.0 0.0 0.00 0.00 0.00 100 1017.4
20260901214048 16 0.0 0.0 0.00 0.00 0.00 100 1017.3
20260901212543 16 0.0 0.0 0.00 0.00 0.00 100 1017.3
20260901211039 16 0.0 0.0 0.00 0.00 0.00 100 1017.4
20260901205530 16 0.0 0.0 0.00 0.00 0.00 100 1017.3
20260901204026 16 0.0 0.0 0.00 0.00 0.00 100 1017.4
20260901202518 16 0.0 0.0 0.00 0.00 0.00 100 1017.3
20260901201013 16 0.0 0.0 0.00 0.00 0.00 100 1017.4
20260901195504 16 0.0 0.0 0.00 0.00 0.00 100 1017.3
20260901193952 16 0.0 0.0 0.00 0.00 0.00 100 1017.4
20260901192449 16 0.0 0.0 0.00 0.00 0.00 100 1017.4
20260901190943 16 0.0 0.0 0.00 0.00 0.00 100 1017.4
20260901185435 16 0.0 0.0 0.00 0.00 0.00 100 1017.4
20260901183926 17 0.0 0.0 0.00 0.00 0.00 100 1017.3
20260901182422 17 0.0 0.0 0.00 0.00 0.00 100 1017.1
20260901180902 17 0.0 0.0 0.00 0.00 0.00 100 1016.8
20260901175404 17 0.0 0.0 0.00 0.00 0.00 100 1016.7
20260901173902 17 0.0 0.0 0.00 0.00 0.00 100 1016.6
20260901172348 17 0.0 0.0 0.00 0.00 0.00 100 1016.5